| time (UTC) | temp C | wind direction | speed KPH | gust KPH | rain 1hr cm | rain 24hr cm | rain mn cm | humidity % | barometer mb |
| 20260509000358 | 16 | 286 | 9.7 | 12.9 | 0.00 | 0.00 | 0.00 | 30 | 1008.1 |
| 20260508235853 | 16 | 302 | 6.4 | 12.9 | 0.00 | 0.00 | 0.00 | 31 | 1008.1 |
| 20260508235350 | 16 | 285 | 9.7 | 11.3 | 0.00 | 0.00 | 0.00 | 30 | 1008.2 |
| 20260508234848 | 16 | 318 | 9.7 | 12.9 | 0.00 | 0.00 | 0.00 | 29 | 1008.2 |
| 20260508234344 | 16 | 296 | 11.3 | 14.5 | 0.00 | 0.00 | 0.00 | 28 | 1008.1 |
| 20260508233843 | 16 | 298 | 11.3 | 16.1 | 0.00 | 0.00 | 0.00 | 28 | 1008.2 |
| 20260508233342 | 17 | 301 | 8.0 | 14.5 | 0.00 | 0.00 | 0.00 | 30 | 1008.2 |
| 20260508232838 | 16 | 278 | 8.0 | 16.1 | 0.00 | 0.00 | 0.00 | 30 | 1008.1 |
| 20260508232334 | 17 | 304 | 14.5 | 20.9 | 0.00 | 0.00 | 0.00 | 30 | 1008.2 |
| 20260508231833 | 17 | 277 | 8.0 | 16.1 | 0.00 | 0.00 | 0.00 | 32 | 1008.2 |
| 20260508231329 | 17 | 286 | 12.9 | 17.7 | 0.00 | 0.00 | 0.00 | 32 | 1008.0 |
| 20260508230826 | 17 | 281 | 11.3 | 16.1 | 0.00 | 0.00 | 0.00 | 34 | 1008.1 |
| 20260508230322 | 17 | 283 | 12.9 | 14.5 | 0.00 | 0.00 | 0.00 | 34 | 1007.9 |
| 20260508225820 | 17 | 290 | 9.7 | 12.9 | 0.00 | 0.00 | 0.00 | 34 | 1007.9 |
| 20260508225316 | 17 | 265 | 4.8 | 6.4 | 0.00 | 0.00 | 0.00 | 33 | 1008.0 |
| 20260508224814 | 17 | 297 | 6.4 | 11.3 | 0.00 | 0.00 | 0.00 | 34 | 1008.0 |
| 20260508224311 | 17 | 273 | 11.3 | 12.9 | 0.00 | 0.00 | 0.00 | 33 | 1007.9 |
| 20260508223809 | 17 | 293 | 8.0 | 9.7 | 0.00 | 0.00 | 0.00 | 32 | 1008.1 |
| 20260508223306 | 17 | 298 | 8.0 | 16.1 | 0.00 | 0.00 | 0.00 | 32 | 1007.9 |
| 20260508222803 | 17 | 291 | 6.4 | 12.9 | 0.00 | 0.00 | 0.00 | 32 | 1008.1 |
| 20260508222300 | 17 | 309 | 8.0 | 16.1 | 0.00 | 0.00 | 0.00 | 33 | 1008.2 |
| 20260508221757 | 17 | 279 | 16.1 | 17.7 | 0.00 | 0.00 | 0.00 | 33 | 1008.2 |
| 20260508221253 | 17 | 277 | 17.7 | 22.5 | 0.00 | 0.00 | 0.00 | 33 | 1007.9 |
| 20260508220749 | 17 | 281 | 8.0 | 14.5 | 0.00 | 0.00 | 0.00 | 35 | 1008.2 |
| 20260508220247 | 17 | 258 | 6.4 | 9.7 | 0.00 | 0.00 | 0.00 | 36 | 1008.3 |
| 20260508215742 | 17 | 237 | 11.3 | 24.1 | 0.00 | 0.00 | 0.00 | 35 | 1008.2 |
| 20260508215239 | 17 | 257 | 3.2 | 6.4 | 0.00 | 0.00 | 0.00 | 40 | 1008.3 |
| 20260508214736 | 17 | 250 | 8.0 | 12.9 | 0.00 | 0.00 | 0.00 | 39 | 1008.0 |
| 20260508214234 | 17 | 359 | 4.8 | 16.1 | 0.00 | 0.00 | 0.00 | 40 | 1008.2 |
| 20260508213730 | 17 | 295 | 3.2 | 12.9 | 0.00 | 0.00 | 0.00 | 37 | 1008.2 |
| 20260508213226 | 17 | 294 | 14.5 | 20.9 | 0.00 | 0.00 | 0.00 | 36 | 1008.4 |
| 20260508212723 | 17 | 276 | 4.8 | 17.7 | 0.00 | 0.00 | 0.00 | 37 | 1008.2 |
| 20260508212219 | 17 | 287 | 12.9 | 16.1 | 0.00 | 0.00 | 0.00 | 37 | 1008.3 |
| 20260508211715 | 17 | 244 | 11.3 | 14.5 | 0.00 | 0.00 | 0.00 | 38 | 1008.2 |
| 20260508211211 | 17 | 270 | 6.4 | 9.7 | 0.00 | 0.00 | 0.00 | 37 | 1008.5 |
| 20260508210709 | 17 | 267 | 8.0 | 20.9 | 0.00 | 0.00 | 0.00 | 39 | 1008.4 |
| 20260508210206 | 17 | 254 | 11.3 | 20.9 | 0.00 | 0.00 | 0.00 | 39 | 1008.5 |
| 20260508205702 | 17 | 240 | 1.6 | 6.4 | 0.00 | 0.00 | 0.00 | 39 | 1008.5 |
| 20260508205159 | 16 | 327 | 1.6 | 4.8 | 0.00 | 0.00 | 0.00 | 39 | 1008.5 |
| 20260508204655 | 16 | 206 | 3.2 | 6.4 | 0.00 | 0.00 | 0.00 | 39 | 1008.4 |
| 20260508204151 | 17 | 282 | 6.4 | 20.9 | 0.00 | 0.00 | 0.00 | 36 | 1008.8 |
| 20260508203648 | 17 | 263 | 3.2 | 12.9 | 0.00 | 0.00 | 0.00 | 40 | 1008.7 |
| 20260508203144 | 17 | 269 | 16.1 | 20.9 | 0.00 | 0.00 | 0.00 | 38 | 1008.7 |
| 20260508202640 | 17 | 261 | 9.7 | 17.7 | 0.00 | 0.00 | 0.00 | 38 | 1008.9 |
| 20260508202137 | 17 | 272 | 14.5 | 22.5 | 0.00 | 0.00 | 0.00 | 38 | 1009.0 |
| 20260508201634 | 17 | 231 | 9.7 | 16.1 | 0.00 | 0.00 | 0.00 | 37 | 1009.0 |
| 20260508201131 | 17 | 247 | 6.4 | 12.9 | 0.00 | 0.00 | 0.00 | 36 | 1009.0 |
| 20260508200627 | 17 | 262 | 3.2 | 4.8 | 0.00 | 0.00 | 0.00 | 36 | 1009.4 |
| 20260508200123 | 16 | 320 | 3.2 | 6.4 | 0.00 | 0.00 | 0.00 | 40 | 1009.5 |
| 20260508195620 | 17 | 292 | 4.8 | 11.3 | 0.00 | 0.00 | 0.00 | 38 | 1009.5 |
| 20260508195117 | 16 | 347 | 1.6 | 6.4 | 0.00 | 0.00 | 0.00 | 37 | 1009.5 |
| 20260508194613 | 17 | 305 | 6.4 | 11.3 | 0.00 | 0.00 | 0.00 | 38 | 1009.6 |
| 20260508194111 | 17 | 271 | 4.8 | 11.3 | 0.00 | 0.00 | 0.00 | 42 | 1009.8 |
| 20260508193607 | 17 | 279 | 8.0 | 11.3 | 0.00 | 0.00 | 0.00 | 37 | 1009.6 |
| 20260508193104 | 17 | 229 | 6.4 | 12.9 | 0.00 | 0.00 | 0.00 | 40 | 1009.8 |
| 20260508192600 | 16 | 242 | 6.4 | 14.5 | 0.00 | 0.00 | 0.00 | 37 | 1009.9 |
| 20260508192058 | 16 | 249 | 8.0 | 16.1 | 0.00 | 0.00 | 0.00 | 38 | 1009.9 |
| 20260508191554 | 17 | 272 | 4.8 | 20.9 | 0.00 | 0.00 | 0.00 | 42 | 1010.1 |
| 20260508191051 | 16 | 291 | 4.8 | 12.9 | 0.00 | 0.00 | 0.00 | 39 | 1010.1 |
| 20260508190548 | 15 | 260 | 6.4 | 12.9 | 0.00 | 0.00 | 0.00 | 40 | 1010.2 |
| 20260508190045 | 16 | 297 | 9.7 | 11.3 | 0.00 | 0.00 | 0.00 | 39 | 1010.3 |
| 20260508185542 | 16 | 289 | 3.2 | 22.5 | 0.00 | 0.00 | 0.00 | 39 | 1010.6 |
| 20260508185039 | 16 | 290 | 9.7 | 20.9 | 0.00 | 0.00 | 0.00 | 40 | 1010.3 |
| 20260508184537 | 16 | 267 | 3.2 | 11.3 | 0.00 | 0.00 | 0.00 | 39 | 1010.3 |
| 20260508184033 | 16 | 270 | 4.8 | 14.5 | 0.00 | 0.00 | 0.00 | 37 | 1010.5 |
| 20260508183530 | 16 | 280 | 9.7 | 20.9 | 0.00 | 0.00 | 0.00 | 40 | 1010.7 |
| 20260508183026 | 15 | 291 | 8.0 | 22.5 | 0.00 | 0.00 | 0.00 | 41 | 1010.6 |
| 20260508182523 | 16 | 244 | 11.3 | 16.1 | 0.00 | 0.00 | 0.00 | 39 | 1010.8 |
| 20260508182019 | 16 | 242 | 4.8 | 12.9 | 0.00 | 0.00 | 0.00 | 41 | 1010.8 |
| 20260508181514 | 16 | 248 | 6.4 | 12.9 | 0.00 | 0.00 | 0.00 | 39 | 1010.9 |
| 20260508181013 | 16 | 245 | 11.3 | 17.7 | 0.00 | 0.00 | 0.00 | 41 | 1011.1 |
| 20260508180509 | 15 | 252 | 11.3 | 17.7 | 0.00 | 0.00 | 0.00 | 39 | 1011.2 |
| 20260508180005 | 16 | 272 | 14.5 | 17.7 | 0.00 | 0.00 | 0.00 | 38 | 1011.0 |
| 20260508175501 | 15 | 308 | 14.5 | 20.9 | 0.00 | 0.00 | 0.00 | 38 | 1011.1 |
| 20260508174959 | 15 | 267 | 14.5 | 17.7 | 0.00 | 0.00 | 0.00 | 39 | 1011.2 |
| 20260508174457 | 15 | 257 | 9.7 | 24.1 | 0.00 | 0.00 | 0.00 | 39 | 1011.3 |
| 20260508173953 | 15 | 307 | 6.4 | 11.3 | 0.00 | 0.00 | 0.00 | 40 | 1011.4 |
| 20260508173451 | 15 | 272 | 14.5 | 20.9 | 0.00 | 0.00 | 0.00 | 39 | 1011.5 |
| 20260508172946 | 15 | 239 | 8.0 | 17.7 | 0.00 | 0.00 | 0.00 | 37 | 1011.7 |
| 20260508172444 | 15 | 247 | 9.7 | 14.5 | 0.00 | 0.00 | 0.00 | 38 | 1011.6 |
| 20260508171940 | 14 | 278 | 4.8 | 16.1 | 0.00 | 0.00 | 0.00 | 40 | 1011.7 |
| 20260508171436 | 14 | 229 | 9.7 | 17.7 | 0.00 | 0.00 | 0.00 | 39 | 1012.0 |
| 20260508170933 | 13 | 251 | 8.0 | 20.9 | 0.00 | 0.00 | 0.00 | 41 | 1012.0 |
| 20260508170431 | 14 | 264 | 8.0 | 16.1 | 0.00 | 0.00 | 0.00 | 41 | 1012.2 |
| 20260508165927 | 15 | 269 | 8.0 | 16.1 | 0.00 | 0.00 | 0.00 | 38 | 1011.8 |
| 20260508165425 | 13 | 2 | 3.2 | 11.3 | 0.00 | 0.00 | 0.00 | 38 | 1012.0 |
| 20260508164921 | 13 | 290 | 11.3 | 17.7 | 0.00 | 0.00 | 0.00 | 40 | 1012.1 |
| 20260508164418 | 14 | 283 | 11.3 | 20.9 | 0.00 | 0.00 | 0.00 | 43 | 1012.2 |
| 20260508163915 | 15 | 269 | 8.0 | 11.3 | 0.00 | 0.00 | 0.00 | 40 | 1012.2 |
| 20260508163413 | 13 | 306 | 4.8 | 6.4 | 0.00 | 0.00 | 0.00 | 45 | 1012.4 |
| 20260508162908 | 13 | 282 | 8.0 | 11.3 | 0.00 | 0.00 | 0.00 | 40 | 1012.3 |
| 20260508162406 | 13 | 302 | 14.5 | 16.1 | 0.00 | 0.00 | 0.00 | 39 | 1012.3 |
| 20260508161902 | 13 | 258 | 6.4 | 6.4 | 0.00 | 0.00 | 0.00 | 44 | 1012.3 |
| 20260508161400 | 13 | 252 | 8.0 | 14.5 | 0.00 | 0.00 | 0.00 | 40 | 1012.4 |
| 20260508160857 | 13 | 268 | 8.0 | 12.9 | 0.00 | 0.00 | 0.00 | 44 | 1012.5 |
| 20260508160356 | 13 | 289 | 6.4 | 11.3 | 0.00 | 0.00 | 0.00 | 39 | 1012.4 |
| 20260508155852 | 13 | 267 | 3.2 | 12.9 | 0.00 | 0.00 | 0.00 | 44 | 1012.6 |
| 20260508155349 | 13 | 344 | 1.6 | 9.7 | 0.00 | 0.00 | 0.00 | 49 | 1012.6 |
| 20260508154846 | 13 | 290 | 3.2 | 9.7 | 0.00 | 0.00 | 0.00 | 45 | 1012.8 |
| 20260508154344 | 13 | 2 | 6.4 | 6.4 | 0.00 | 0.00 | 0.00 | 48 | 1012.6 |
| 20260508153840 | 13 | 297 | 9.7 | 12.9 | 0.00 | 0.00 | 0.00 | 47 | 1012.8 |
| 20260508153337 | 12 | 267 | 6.4 | 11.3 | 0.00 | 0.00 | 0.00 | 47 | 1013.1 |
| 20260508152833 | 12 | 311 | 3.2 | 11.3 | 0.00 | 0.00 | 0.00 | 49 | 1012.8 |
| 20260508152330 | 12 | 293 | 1.6 | 6.4 | 0.00 | 0.00 | 0.00 | 54 | 1012.9 |
| 20260508151826 | 12 | 319 | 1.6 | 6.4 | 0.00 | 0.00 | 0.00 | 47 | 1013.0 |
| 20260508151323 | 12 | 256 | 6.4 | 11.3 | 0.00 | 0.00 | 0.00 | 49 | 1013.1 |
| 20260508150819 | 12 | 275 | 6.4 | 11.3 | 0.00 | 0.00 | 0.00 | 52 | 1013.1 |
| 20260508150316 | 12 | 295 | 4.8 | 12.9 | 0.00 | 0.00 | 0.00 | 53 | 1012.8 |
| 20260508145812 | 12 | 357 | 1.6 | 3.2 | 0.00 | 0.00 | 0.00 | 52 | 1012.9 |
| 20260508145308 | 12 | 93 | 3.2 | 3.2 | 0.00 | 0.00 | 0.00 | 56 | 1013.0 |
| 20260508144806 | 12 | 287 | 3.2 | 3.2 | 0.00 | 0.00 | 0.00 | 53 | 1013.1 |
| 20260508144303 | 12 | 336 | 3.2 | 3.2 | 0.00 | 0.00 | 0.00 | 57 | 1013.2 |
| 20260508143801 | 12 | 48 | 0.0 | 1.6 | 0.00 | 0.00 | 0.00 | 63 | 1013.3 |
| 20260508143258 | 11 | 122 | 4.8 | 4.8 | 0.00 | 0.00 | 0.00 | 60 | 1013.4 |
| 20260508142754 | 11 | 11 | 0.0 | 3.2 | 0.00 | 0.00 | 0.00 | 61 | 1013.3 |
| 20260508142251 | 11 | 343 | 0.0 | 3.2 | 0.00 | 0.00 | 0.00 | 63 | 1013.3 |
| 20260508141747 | 11 | 151 | 1.6 | 3.2 | 0.00 | 0.00 | 0.00 | 60 | 1013.4 |
| 20260508141245 | 11 | 316 | 1.6 | 3.2 | 0.00 | 0.00 | 0.00 | 64 | 1013.4 |
| 20260508140742 | 11 | 28 | 1.6 | 1.6 | 0.00 | 0.00 | 0.00 | 63 | 1013.5 |
| 20260508140239 | 11 | 214 | 1.6 | 4.8 | 0.00 | 0.00 | 0.00 | 65 | 1013.3 |
| 20260508135735 | 11 | 315 | 1.6 | 4.8 | 0.00 | 0.00 | 0.00 | 68 | 1013.3 |
| 20260508135231 | 10 | 9 | 0.0 | 1.6 | 0.00 | 0.00 | 0.00 | 68 | 1013.5 |
| 20260508134727 | 10 | 279 | 4.8 | 4.8 | 0.00 | 0.00 | 0.00 | 68 | 1013.5 |
| 20260508134224 | 10 | 25 | 3.2 | 4.8 | 0.00 | 0.00 | 0.00 | 71 | 1013.5 |
| 20260508133721 | 10 | 276 | 3.2 | 3.2 | 0.00 | 0.00 | 0.00 | 69 | 1013.6 |
| 20260508133219 | -17 | 0.0 | 0.0 | 0.00 | 0.00 | 0.00 | 1013.7 | ||
| 20260508132716 | -17 | 0.0 | 0.0 | 0.00 | 0.00 | 0.00 | 1013.5 | ||
| 20260508132214 | -17 | 0.0 | 0.0 | 0.00 | 0.00 | 0.00 | 1013.8 | ||
| 20260508131709 | -17 | 0.0 | 0.0 | 0.00 | 0.00 | 0.00 | 1013.6 | ||
| 20260508131206 | -17 | 0.0 | 0.0 | 0.00 | 0.00 | 0.00 | 1013.7 | ||
| 20260508130702 | -17 | 0.0 | 0.0 | 0.00 | 0.00 | 0.00 | 1013.8 | ||
| 20260508130159 | -17 | 0.0 | 0.0 | 0.00 | 0.00 | 0.00 | 1013.6 | ||
| 20260508125654 | -17 | 0.0 | 0.0 | 0.00 | 0.00 | 0.00 | 1013.8 | ||
| 20260508125151 | -17 | 0.0 | 0.0 | 0.00 | 0.00 | 0.00 | 1013.8 | ||
| 20260508124650 | -17 | 0.0 | 0.0 | 0.00 | 0.00 | 0.00 | 1013.8 | ||
| 20260508124146 | -17 | 0.0 | 0.0 | 0.00 | 0.00 | 0.00 | 1013.6 | ||
| 20260508123645 | -17 | 0.0 | 0.0 | 0.00 | 0.00 | 0.00 | 1013.7 | ||
| 20260508123142 | -17 | 0.0 | 0.0 | 0.00 | 0.00 | 0.00 | 1013.8 | ||
| 20260508122638 | -17 | 0.0 | 0.0 | 0.00 | 0.00 | 0.00 | 1013.6 | ||
| 20260508122135 | -17 | 0.0 | 0.0 | 0.00 | 0.00 | 0.00 | 1013.6 | ||
| 20260508121633 | -17 | 0.0 | 0.0 | 0.00 | 0.00 | 0.00 | 1013.4 | ||
| 20260508121131 | 3 | 354 | 0.0 | 0.0 | 0.00 | 0.00 | 0.00 | 99 | 1013.4 |
| 20260508120628 | 3 | 354 | 0.0 | 0.0 | 0.00 | 0.00 | 0.00 | 99 | 1013.2 |
| 20260508120127 | 3 | 354 | 0.0 | 0.0 | 0.00 | 0.00 | 0.00 | 99 | 1013.3 |
| 20260508115624 | 3 | 354 | 0.0 | 0.0 | 0.00 | 0.00 | 0.00 | 99 | 1013.5 |
| 20260508115120 | 3 | 354 | 0.0 | 0.0 | 0.00 | 0.00 | 0.00 | 99 | 1013.3 |
| 20260508114618 | 3 | 354 | 0.0 | 0.0 | 0.00 | 0.00 | 0.00 | 99 | 1013.0 |
| 20260508114113 | 3 | 354 | 0.0 | 0.0 | 0.00 | 0.00 | 0.00 | 99 | 1013.1 |
| 20260508113611 | 3 | 354 | 0.0 | 0.0 | 0.00 | 0.00 | 0.00 | 99 | 1013.1 |
| 20260508113109 | 3 | 354 | 0.0 | 0.0 | 0.00 | 0.00 | 0.00 | 99 | 1013.1 |
| 20260508112605 | 3 | 354 | 0.0 | 0.0 | 0.00 | 0.00 | 0.00 | 99 | 1013.1 |
| 20260508112102 | 3 | 354 | 0.0 | 0.0 | 0.00 | 0.00 | 0.00 | 99 | 1012.9 |
| 20260508111559 | 3 | 354 | 0.0 | 0.0 | 0.00 | 0.00 | 0.00 | 99 | 1012.8 |
| 20260508111056 | 2 | 353 | 0.0 | 0.0 | 0.00 | 0.00 | 0.00 | 99 | 1012.8 |
| 20260508110554 | 2 | 353 | 0.0 | 0.0 | 0.00 | 0.00 | 0.00 | 99 | 1012.6 |
| 20260508110049 | 2 | 353 | 0.0 | 0.0 | 0.00 | 0.00 | 0.00 | 99 | 1012.8 |
| 20260508105544 | 1 | 351 | 0.0 | 0.0 | 0.00 | 0.00 | 0.00 | 99 | 1012.6 |
| 20260508105042 | 1 | 351 | 0.0 | 0.0 | 0.00 | 0.00 | 0.00 | 99 | 1012.8 |
| 20260508104540 | 1 | 350 | 0.0 | 0.0 | 0.00 | 0.00 | 0.00 | 99 | 1012.8 |
| 20260508104036 | 1 | 345 | 0.0 | 0.0 | 0.00 | 0.00 | 0.00 | 99 | 1012.8 |
| 20260508103533 | 1 | 345 | 0.0 | 0.0 | 0.00 | 0.00 | 0.00 | 99 | 1012.6 |
| 20260508103031 | 1 | 345 | 0.0 | 0.0 | 0.00 | 0.00 | 0.00 | 99 | 1012.6 |
| 20260508102528 | 1 | 345 | 0.0 | 0.0 | 0.00 | 0.00 | 0.00 | 99 | 1012.5 |
| 20260508102026 | 1 | 345 | 0.0 | 0.0 | 0.00 | 0.00 | 0.00 | 99 | 1012.5 |
| 20260508101523 | 1 | 345 | 0.0 | 0.0 | 0.00 | 0.00 | 0.00 | 99 | 1012.4 |
| 20260508101020 | 2 | 341 | 0.0 | 0.0 | 0.00 | 0.00 | 0.00 | 99 | 1012.3 |
| 20260508100518 | 2 | 351 | 0.0 | 0.0 | 0.00 | 0.00 | 0.00 | 98 | 1012.3 |
| 20260508100015 | 2 | 351 | 0.0 | 0.0 | 0.00 | 0.00 | 0.00 | 98 | 1012.5 |
| 20260508095512 | 2 | 351 | 0.0 | 0.0 | 0.00 | 0.00 | 0.00 | 98 | 1012.2 |
| 20260508095009 | 2 | 351 | 0.0 | 0.0 | 0.00 | 0.00 | 0.00 | 98 | 1012.4 |
| 20260508094506 | 2 | 351 | 0.0 | 0.0 | 0.00 | 0.00 | 0.00 | 98 | 1012.6 |
| 20260508094003 | 2 | 351 | 0.0 | 0.0 | 0.00 | 0.00 | 0.00 | 98 | 1012.5 |
| 20260508093459 | 1 | 353 | 0.0 | 0.0 | 0.00 | 0.00 | 0.00 | 98 | 1012.5 |
| 20260508092957 | 1 | 353 | 0.0 | 0.0 | 0.00 | 0.00 | 0.00 | 98 | 1012.4 |
| 20260508092455 | 1 | 353 | 0.0 | 0.0 | 0.00 | 0.00 | 0.00 | 98 | 1012.6 |
| 20260508091954 | 2 | 356 | 0.0 | 0.0 | 0.00 | 0.00 | 0.00 | 98 | 1012.5 |
| 20260508091450 | 2 | 356 | 0.0 | 0.0 | 0.00 | 0.00 | 0.00 | 98 | 1012.5 |
| 20260508090947 | 2 | 356 | 0.0 | 0.0 | 0.00 | 0.00 | 0.00 | 98 | 1012.6 |
| 20260508090446 | 2 | 356 | 0.0 | 0.0 | 0.00 | 0.00 | 0.00 | 98 | 1012.6 |
| 20260508085941 | 2 | 352 | 0.0 | 0.0 | 0.00 | 0.00 | 0.00 | 97 | 1012.4 |
| 20260508085438 | 2 | 350 | 0.0 | 0.0 | 0.00 | 0.00 | 0.00 | 98 | 1012.6 |
| 20260508084935 | 2 | 348 | 0.0 | 0.0 | 0.00 | 0.00 | 0.00 | 97 | 1012.5 |
| 20260508084431 | 3 | 347 | 0.0 | 0.0 | 0.00 | 0.00 | 0.00 | 97 | 1012.5 |
| 20260508083929 | 3 | 345 | 0.0 | 0.0 | 0.00 | 0.00 | 0.00 | 97 | 1012.4 |
| 20260508083426 | 3 | 353 | 0.0 | 0.0 | 0.00 | 0.00 | 0.00 | 97 | 1012.6 |
| 20260508082926 | 3 | 353 | 0.0 | 0.0 | 0.00 | 0.00 | 0.00 | 97 | 1012.4 |
| 20260508082418 | 3 | 350 | 0.0 | 0.0 | 0.00 | 0.00 | 0.00 | 96 | 1012.6 |
| 20260508081916 | 3 | 350 | 0.0 | 0.0 | 0.00 | 0.00 | 0.00 | 96 | 1012.9 |
| 20260508081412 | 3 | 2 | 0.0 | 0.0 | 0.00 | 0.00 | 0.00 | 96 | 1012.9 |
| 20260508080908 | 3 | 3 | 0.0 | 0.0 | 0.00 | 0.00 | 0.00 | 96 | 1012.6 |
| 20260508080407 | 3 | 350 | 0.0 | 0.0 | 0.00 | 0.00 | 0.00 | 96 | 1012.6 |
| 20260508075903 | 3 | 353 | 0.0 | 0.0 | 0.00 | 0.00 | 0.00 | 96 | 1012.9 |
| 20260508075400 | 3 | 354 | 0.0 | 0.0 | 0.00 | 0.00 | 0.00 | 95 | 1012.9 |
| 20260508074858 | 3 | 354 | 0.0 | 0.0 | 0.00 | 0.00 | 0.00 | 94 | 1012.9 |
| 20260508074354 | 4 | 351 | 0.0 | 0.0 | 0.00 | 0.00 | 0.00 | 92 | 1012.8 |
| 20260508073852 | 4 | 345 | 0.0 | 0.0 | 0.00 | 0.00 | 0.00 | 92 | 1012.9 |
| 20260508073350 | 5 | 340 | 0.0 | 0.0 | 0.00 | 0.00 | 0.00 | 91 | 1012.8 |
| 20260508072846 | 5 | 342 | 0.0 | 1.6 | 0.00 | 0.00 | 0.00 | 91 | 1012.8 |
| 20260508072342 | 5 | 331 | 0.0 | 0.0 | 0.00 | 0.00 | 0.00 | 91 | 1012.9 |
| 20260508071840 | 5 | 324 | 0.0 | 1.6 | 0.00 | 0.00 | 0.00 | 91 | 1012.9 |
| 20260508071338 | 5 | 335 | 1.6 | 1.6 | 0.00 | 0.00 | 0.00 | 91 | 1012.9 |
| 20260508070835 | 5 | 341 | 0.0 | 1.6 | 0.00 | 0.00 | 0.00 | 90 | 1013.0 |
| 20260508070334 | 6 | 352 | 0.0 | 0.0 | 0.00 | 0.00 | 0.00 | 89 | 1013.0 |
| 20260508065831 | 6 | 297 | 0.0 | 1.6 | 0.00 | 0.00 | 0.00 | 88 | 1013.3 |
| 20260508065329 | 6 | 266 | 3.2 | 3.2 | 0.00 | 0.00 | 0.00 | 88 | 1013.3 |
| 20260508064827 | 6 | 307 | 1.6 | 1.6 | 0.00 | 0.00 | 0.00 | 87 | 1013.2 |
| 20260508064324 | 6 | 303 | 1.6 | 1.6 | 0.00 | 0.00 | 0.00 | 87 | 1013.2 |
| 20260508063821 | 6 | 304 | 1.6 | 3.2 | 0.00 | 0.00 | 0.00 | 86 | 1013.4 |
| 20260508063320 | 6 | 302 | 3.2 | 4.8 | 0.00 | 0.00 | 0.00 | 87 | 1013.4 |
| 20260508062816 | 6 | 311 | 3.2 | 4.8 | 0.00 | 0.00 | 0.00 | 86 | 1013.2 |
| 20260508062314 | 6 | 308 | 3.2 | 3.2 | 0.00 | 0.00 | 0.00 | 86 | 1013.3 |
| 20260508061810 | 6 | 310 | 0.0 | 1.6 | 0.00 | 0.00 | 0.00 | 86 | 1013.2 |
| 20260508061308 | 6 | 329 | 0.0 | 0.0 | 0.00 | 0.00 | 0.00 | 86 | 1013.1 |
| 20260508060804 | 6 | 291 | 1.6 | 3.2 | 0.00 | 0.00 | 0.00 | 85 | 1013.5 |
| 20260508060303 | 7 | 335 | 0.0 | 1.6 | 0.00 | 0.00 | 0.00 | 85 | 1013.2 |
| 20260508055757 | 7 | 11 | 0.0 | 1.6 | 0.00 | 0.00 | 0.00 | 84 | 1013.3 |
| 20260508055255 | 7 | 326 | 1.6 | 1.6 | 0.00 | 0.00 | 0.00 | 83 | 1013.3 |
| 20260508054751 | 7 | 284 | 4.8 | 4.8 | 0.00 | 0.00 | 0.00 | 81 | 1013.4 |
| 20260508054249 | 7 | 284 | 4.8 | 4.8 | 0.00 | 0.00 | 0.00 | 81 | 1013.5 |
| 20260508053745 | 7 | 284 | 4.8 | 4.8 | 0.00 | 0.00 | 0.00 | 81 | 1013.2 |
| 20260508053243 | 7 | 284 | 4.8 | 4.8 | 0.00 | 0.00 | 0.00 | 81 | 1013.2 |
| 20260508052740 | 7 | 284 | 4.8 | 4.8 | 0.00 | 0.00 | 0.00 | 81 | 1013.4 |
| 20260508052237 | 7 | 331 | 3.2 | 4.8 | 0.00 | 0.00 | 0.00 | 81 | 1013.4 |
| 20260508051733 | 7 | 331 | 3.2 | 4.8 | 0.00 | 0.00 | 0.00 | 81 | 1013.4 |
| 20260508051228 | 7 | 331 | 3.2 | 6.4 | 0.00 | 0.00 | 0.00 | 81 | 1013.4 |
| 20260508050726 | 8 | 268 | 3.2 | 3.2 | 0.00 | 0.00 | 0.00 | 79 | 1013.3 |
| 20260508050223 | 8 | 268 | 3.2 | 3.2 | 0.00 | 0.00 | 0.00 | 79 | 1013.0 |
| 20260508045718 | 8 | 268 | 3.2 | 3.2 | 0.00 | 0.00 | 0.00 | 79 | 1013.2 |
| 20260508045216 | 8 | 268 | 3.2 | 3.2 | 0.00 | 0.00 | 0.00 | 79 | 1013.2 |
| 20260508044713 | 8 | 297 | 4.8 | 4.8 | 0.00 | 0.00 | 0.00 | 79 | 1013.2 |
| 20260508044210 | 8 | 305 | 3.2 | 4.8 | 0.00 | 0.00 | 0.00 | 79 | 1013.0 |
| 20260508043706 | 8 | 305 | 3.2 | 9.7 | 0.00 | 0.00 | 0.00 | 79 | 1013.0 |
| 20260508043204 | 7 | 293 | 3.2 | 3.2 | 0.00 | 0.00 | 0.00 | 81 | 1013.0 |
| 20260508042700 | 7 | 228 | 4.8 | 4.8 | 0.00 | 0.00 | 0.00 | 81 | 1012.9 |
| 20260508042157 | 7 | 351 | 0.0 | 0.0 | 0.00 | 0.00 | 0.00 | 81 | 1013.0 |
| 20260508041653 | 7 | 297 | 1.6 | 1.6 | 0.00 | 0.00 | 0.00 | 80 | 1013.2 |
| 20260508041150 | 7 | 297 | 1.6 | 1.6 | 0.00 | 0.00 | 0.00 | 80 | 1012.9 |
| 20260508040647 | 7 | 297 | 1.6 | 1.6 | 0.00 | 0.00 | 0.00 | 80 | 1012.8 |
| 20260508040144 | 7 | 297 | 1.6 | 1.6 | 0.00 | 0.00 | 0.00 | 80 | 1013.0 |
| 20260508035642 | 7 | 330 | 0.0 | 1.6 | 0.00 | 0.00 | 0.00 | 80 | 1013.0 |
| 20260508035139 | 7 | 337 | 0.0 | 1.6 | 0.00 | 0.00 | 0.00 | 79 | 1012.9 |
| 20260508034636 | 7 | 333 | 0.0 | 1.6 | 0.00 | 0.00 | 0.00 | 79 | 1012.9 |
| 20260508034133 | 7 | 345 | 3.2 | 4.8 | 0.00 | 0.00 | 0.00 | 78 | 1012.8 |
| 20260508033630 | 7 | 347 | 0.0 | 0.0 | 0.00 | 0.00 | 0.00 | 78 | 1013.1 |
| 20260508033128 | 7 | 296 | 1.6 | 3.2 | 0.00 | 0.00 | 0.00 | 77 | 1013.1 |
| 20260508032624 | 7 | 356 | 0.0 | 0.0 | 0.00 | 0.00 | 0.00 | 76 | 1012.9 |
| 20260508032122 | 7 | 243 | 3.2 | 6.4 | 0.00 | 0.00 | 0.00 | 76 | 1013.0 |
| 20260508031619 | 7 | 4 | 0.0 | 1.6 | 0.00 | 0.00 | 0.00 | 75 | 1012.9 |
| 20260508031115 | 7 | 142 | 1.6 | 1.6 | 0.00 | 0.00 | 0.00 | 75 | 1013.0 |
| 20260508030612 | 7 | 9 | 0.0 | 0.0 | 0.00 | 0.00 | 0.00 | 74 | 1013.0 |
| 20260508030110 | 8 | 350 | 0.0 | 0.0 | 0.00 | 0.00 | 0.00 | 73 | 1013.1 |
| 20260508025605 | 8 | 341 | 0.0 | 1.6 | 0.00 | 0.00 | 0.00 | 72 | 1013.2 |
| 20260508025103 | 8 | 350 | 0.0 | 0.0 | 0.00 | 0.00 | 0.00 | 72 | 1013.3 |
| 20260508024558 | 8 | 355 | 0.0 | 0.0 | 0.00 | 0.00 | 0.00 | 72 | 1013.1 |
| 20260508024056 | 8 | 5 | 0.0 | 0.0 | 0.00 | 0.00 | 0.00 | 71 | 1013.2 |
| 20260508023552 | 8 | 340 | 0.0 | 0.0 | 0.00 | 0.00 | 0.00 | 72 | 1013.4 |
| 20260508023050 | 8 | 346 | 0.0 | 0.0 | 0.00 | 0.00 | 0.00 | 72 | 1013.0 |
| 20260508022545 | 8 | 345 | 0.0 | 0.0 | 0.00 | 0.00 | 0.00 | 72 | 1012.8 |
| 20260508022043 | 8 | 359 | 0.0 | 0.0 | 0.00 | 0.00 | 0.00 | 73 | 1013.0 |
| 20260508021538 | 8 | 355 | 0.0 | 0.0 | 0.00 | 0.00 | 0.00 | 72 | 1013.0 |
| 20260508021034 | 7 | 340 | 0.0 | 0.0 | 0.00 | 0.00 | 0.00 | 71 | 1012.8 |
| 20260508020532 | 7 | 5 | 0.0 | 0.0 | 0.00 | 0.00 | 0.00 | 72 | 1013.0 |
| 20260508020030 | 7 | 357 | 0.0 | 0.0 | 0.00 | 0.00 | 0.00 | 72 | 1012.9 |
| 20260508015527 | 7 | 337 | 0.0 | 0.0 | 0.00 | 0.00 | 0.00 | 72 | 1013.1 |
| 20260508015024 | 8 | 20 | 0.0 | 0.0 | 0.00 | 0.00 | 0.00 | 67 | 1013.0 |
| 20260508014520 | 8 | 20 | 0.0 | 0.0 | 0.00 | 0.00 | 0.00 | 67 | 1012.6 |
| 20260508014016 | 8 | 20 | 0.0 | 0.0 | 0.00 | 0.00 | 0.00 | 67 | 1012.8 |
| 20260508013513 | 8 | 335 | 0.0 | 0.0 | 0.00 | 0.00 | 0.00 | 66 | 1012.5 |
| 20260508013010 | 8 | 7 | 1.6 | 1.6 | 0.00 | 0.00 | 0.00 | 65 | 1012.4 |
| 20260508012507 | 8 | 328 | 1.6 | 4.8 | 0.00 | 0.00 | 0.00 | 64 | 1012.6 |
| 20260508012004 | 9 | 57 | 1.6 | 1.6 | 0.00 | 0.00 | 0.00 | 64 | 1012.5 |
| 20260508011503 | 9 | 352 | 0.0 | 1.6 | 0.00 | 0.00 | 0.00 | 63 | 1012.4 |
| 20260508011000 | 10 | 282 | 3.2 | 3.2 | 0.00 | 0.00 | 0.00 | 62 | 1012.5 |
| 20260508010456 | 10 | 272 | 3.2 | 11.3 | 0.00 | 0.00 | 0.00 | 61 | 1012.9 |
| 20260508005954 | 10 | 286 | 4.8 | 4.8 | 0.00 | 0.00 | 0.00 | 59 | 1012.8 |
| 20260508005450 | 10 | 224 | 8.0 | 9.7 | 0.00 | 0.00 | 0.00 | 57 | 1012.8 |
| 20260508004947 | 10 | 276 | 4.8 | 6.4 | 0.00 | 0.00 | 0.00 | 54 | 1012.6 |
| 20260508004443 | 10 | 276 | 4.8 | 6.4 | 0.00 | 0.00 | 0.00 | 54 | 1012.6 |
| 20260508003940 | 10 | 290 | 11.3 | 12.9 | 0.00 | 0.00 | 0.00 | 53 | 1012.4 |
| 20260508003436 | 10 | 279 | 8.0 | 14.5 | 0.00 | 0.00 | 0.00 | 53 | 1012.5 |
| 20260508002934 | 11 | 295 | 11.3 | 14.5 | 0.00 | 0.00 | 0.00 | 52 | 1012.4 |
| 20260508002430 | 11 | 227 | 6.4 | 6.4 | 0.00 | 0.00 | 0.00 | 51 | 1012.5 |
| 20260508001926 | 10 | 299 | 6.4 | 11.3 | 0.00 | 0.00 | 0.00 | 50 | 1012.4 |
| 20260508001423 | 11 | 247 | 1.6 | 3.2 | 0.00 | 0.00 | 0.00 | 52 | 1012.3 |
| 20260508000919 | 11 | 257 | 3.2 | 4.8 | 0.00 | 0.00 | 0.00 | 49 | 1012.4 |